Preview of NWS' New Version of Forecast
This preview is not operational and should not be used for support decisions.

Regional Weather Roundup (RWR)

Issued by Gray - Portland, ME (GYX)

                            
000
ASUS41 KGYX 151410
RWRGYX
WEATHER ROUNDUP FOR MAINE AND NEW HAMPSHIRE
NATIONAL WEATHER SERVICE GRAY ME
1000 AM EDT MON OCT 15 2018

MEZ002-005-006-010-012-015-018-020-021-024-026-027-029-151500-
MAINE
  
CITY           SKY/WX    TMP DP  RH WIND       PRES   REMARKS
PORTLAND       CLOUDY    50  44  80 SW3       30.16F                  
SANFORD        CLOUDY    46  41  82 S5        30.15F                  
BAR HARBOR     FAIR      53  44  71 S5        30.18F                  
WISCASSET      FAIR      53  49  86 VRB5      30.17F                  
ROCKLAND       FAIR      57  50  77 S8        30.17S                  
FRYEBURG       PTSUNNY   42  39  89 E3        30.13F                  
LEWISTONAUBURN FAIR      43  38  82 CALM      30.14F                  
AUGUSTA        FAIR      45  41  86 S5        30.15F                  
WATERVILLE     FAIR      44  39  82 SW3       30.13                   
BANGOR         PTSUNNY   50  40  68 SE6       30.16F                  
GREENVILLE       N/A     47  32  56 S6        30.08F                  
MILLINOCKET    FAIR      46  35  65 SE6       30.14F                  
HOULTON        FAIR      49  35  58 VRB5      30.11F                  
PRESQUE ISLE   FAIR      42  35  76 SE6       30.12F                  
FRENCHVILLE    CLOUDY    46  35  65 S6        30.07F                  
CARIBOU        PTSUNNY   45  36  70 S7        30.09F                  
$$

NHZ002-005-008-009-011-012-014-151500-
NEW HAMPSHIRE
  
CITY           SKY/WX    TMP DP  RH WIND       PRES   REMARKS
PORTSMOUTH     CLOUDY    45  44  99 CALM      30.13F                  
ROCHESTER      CLOUDY    44  42  93 CALM      30.14F                  
NASHUA         LGT RAIN  42  42 100 E3        30.14F                  
MANCHESTER     LGT RAIN  41  40  96 S3        30.12F FOG              
CONCORD        CLOUDY    37  37 100 CALM      30.13F                  
LACONIA        CLOUDY    43  43 100 CALM      30.12F FOG              
PLYMOUTH       CLOUDY    37  37 100 CALM      30.12F                  
BERLIN         FAIR      35  34  96 CALM      30.08F                  
WHITEFIELD     FAIR      39  34  82 CALM      30.05F                  
JAFFREY        LGT RAIN  45  45 100 CALM      30.10F FOG              
KEENE          LGT RAIN  39  38  96 CALM      30.11F FOG              
LEBANON        LGT RAIN  40  36  86 CALM      30.08F                  
MT WASHINGTON  PTSUNNY   32  28  86 SW29G41     N/A  WCI  18          
$$

VTZ005-007-008-151500-
VERMONT
  
CITY           SKY/WX    TMP DP  RH WIND       PRES   REMARKS
ST JOHNSBURY     N/A     37  35  92 MISG      30.06F                  
MONTPELIER     CLOUDY    45  40  82 S10       30.07F                  
BURLINGTON     CLOUDY    50  41  71 S10G20    30.00F                  
$$

MAZ007-012-024-CTZ003-RIZ002-NYZ038-NYZ072-151500-
SOUTHERN NEW ENGLAND AND NY
  
CITY           SKY/WX    TMP DP  RH WIND       PRES   REMARKS
BOSTON         LGT RAIN  53  45  74 S6        30.16F                  
WORCESTER      CLOUDY    47  45  93 S9        30.12F                  
NANTUCKET      CLOUDY    61  54  77 S18       30.19F                  
PROVIDENCE     CLOUDY    50  48  93 W3        30.16F                  
HARTFORD       LGT RAIN  46  46 100 CALM      30.12F FOG              
ALBANY         CLOUDY    51  47  86 S13G18    30.03F                  
NEW YORK CITY  LGT RAIN  62  57  83 S6        30.11S                  
$$

ANZ081-ANZ082-ANZ150-NHZ014-MEZ023>029-151500-
COASTAL MARINE OBSERVATIONS
  
STATION/POSITION TIME  TEMP    WIND        PRES    WAVE
                       AIR SEA DIR/SP/G            HT/PER
                 (UTC) (F)     (DEG/KT/KT) (MB)    (FT/S)
MOUNT DESERT ROC 1400   55     170/ 12/ 13 1022.4S
MATINICUS ROCK   1300   54     170/ 13/ 14 1021.4F
ISLE OF SHOALS   1300   51     210/ 10/ 11 1020.9F
JEFFREYS LEDGE   1306      57                N/A     2/ 3
$$

.............KEY..............
   WCI - WIND CHILL
   TC  - TEMPERATURE IN CELSIUS
   VSB - VISIBILITY IN MILES
   HX  - HEAT INDEX
   FAIR- INDICATES FEW OR NO CLOUDS BELOW 12,000 FT, WITH NO 
         SIGNIFICANT WEATHER AND/OR OBSTRUCTIONS TO VISIBILITY.